Overview Statistics Trail Chart Weather Telemetry Raw packets
 

This is the latest recevied weather packets stored in our database for station/object M0JUI-1. If no packets are shown the sender has not sent any weather packets the latest 10 day(s).

<< 84 85 86 87 88 89 90 >>
Time Temp. Humidity Pressure Rain* Wind** Luminosity Snow
1788022184 15° C 22% 1001.8 hPa 0.51 mm - 29 W/m² -
1788021885 15° C 22% 1001.7 hPa 0.76 mm - 32 W/m² -
1788021585 15° C 22% 1001.7 hPa 1.02 mm - 24 W/m² -
1788021284 15° C 22% 1001.5 hPa 1.27 mm - 33 W/m² -
1788020984 15° C 22% 1001.5 hPa 1.27 mm - 42 W/m² -
1788020684 15° C 22% 1001.5 hPa 1.27 mm - 62 W/m² -
1788020384 15° C 22% 1001.2 hPa 1.27 mm - 69 W/m² -
1788020085 15° C 22% 1001.5 hPa 1.27 mm - 64 W/m² -
1788019784 15° C 22% 1001.5 hPa 1.27 mm - 48 W/m² -
1788019484 15° C 22% 1001.3 hPa 1.27 mm - 53 W/m² -
1788019184 15° C 22% 1001.4 hPa 1.02 mm - 69 W/m² -
1788018885 15° C 22% 1001.3 hPa 1.02 mm - 95 W/m² -
1788018584 15° C 22% 1001.3 hPa 0.76 mm - 101 W/m² -
1788018284 15° C 22% 1001.4 hPa 0.51 mm - 83 W/m² -
1788017984 15° C 21% 1001.5 hPa 0.25 mm - 53 W/m² -
1788017684 15° C 21% 1001.7 hPa 0 mm - 43 W/m² -
1788017384 15° C 21% 1001.4 hPa 0 mm - 36 W/m² -
1788017084 15° C 21% 1001.4 hPa 0 mm - 35 W/m² -
1788016784 15° C 21% 1001.6 hPa 0.25 mm - 42 W/m² -
1788016484 15° C 21% 1001.5 hPa 0.25 mm - 52 W/m² -
1788016184 15° C 21% 1001.6 hPa 0.25 mm - 46 W/m² -
1788015885 15° C 21% 1001.6 hPa 0.25 mm - 53 W/m² -
1788015584 14.44° C 21% 1001.5 hPa 0.25 mm - 88 W/m² -
1788015284 14.44° C 21% 1001.4 hPa 0.25 mm - 74 W/m² -
1788014985 14.44° C 21% 1001.7 hPa 0.25 mm - 55 W/m² -

* Rain latest hour (hover to see other rain measurements)
** Current wind speed in m/s (hover to see current wind gust speed)